Location: Dittelspoint
(48.7198°N, 10.7214°E)
Time: 10:45:54
(UTC+00:00)

Cosmos 1959 Rocket - Pass Details

Date: 09 April 2020
Orbit: 946 x 998 km, 82.9° (Epoch: 25 May)

Event Time Altitude Azimuth Distance (km) Brightness Sun altitude
Rises 19:39:37 0° 352° (N) 3,718 8.2 -15.8°
Reaches altitude 10° 19:42:12 10° 355° (N) 2,759 7.4 -16.2°
Maximum altitude 19:48:31 68° 79° (ENE) 1,050 4.5 -17.1°
Enters shadow 19:52:40 22° 157° (SSE) 1,979 5.6 -17.6°
